Regional Weather Roundup
Issued by NWS

Home | Current Version | Previous Version | Graphics & Text | Print | Product List | Glossary On
Versions: 1 2 3 4 5 6 7 8 9 10 11 12 13 14 15 16 17 18 19 20 21 22 23 24 25 26 27 28
000
ASUS45 KBOI 250510
RWRID
WEATHER ROUNDUP FOR IDAHO
NATIONAL WEATHER SERVICE BOISE ID
1100 PM MDT FRI OCT 24 2014

NOTE: "FAIR" INDICATES FEW OR NO CLOUDS BELOW 12000 FEET
WITH NO SIGNIFICANT WEATHER AND/OR OBSTRUCTIONS TO VISIBILITY

IDZ012-014-250600-
SOUTHWEST IDAHO


CITY           SKY/WX    TMP DP  RH WIND       PRES   REMARKS
BOISE          PTCLDY    50  48  93 CALM      29.95F
CALDWELL       PTCLDY    50  41  71 CALM      29.96F
MOUNTAIN HOME  PTCLDY    49  49 100 CALM      29.96S FOG
$$

IDZ016-017-250600-
SOUTHCENTRAL IDAHO


CITY           SKY/WX    TMP DP  RH WIND       PRES   REMARKS
BURLEY         CLEAR     47  34  60 CALM      30.01S
JEROME         CLEAR     59  28  30 NE18      30.00S
TWIN FALLS     CLEAR     52  29  41 S13       29.99F
$$

IDZ019>023-250600-
SOUTHEAST IDAHO


CITY           SKY/WX    TMP DP  RH WIND       PRES   REMARKS
IDAHO FALLS    CLEAR     39  30  70 NW5       30.11R
POCATELLO      CLEAR     50  30  46 N7        30.07R
REXBURG        CLEAR     43  31  62 N6        30.12R
$$

IDZ006-010-011-018-031-032-250600-
CENTRAL IDAHO MOUNTAINS


CITY           SKY/WX    TMP DP  RH WIND       PRES   REMARKS
MCCALL         CLOUDY    40  38  93 CALM      30.02R
HAILEY         CLEAR     46  34  61 NW10      30.13R
STANLEY          N/A     33  30  88 W3        30.14R
SALMON         CLOUDY    37  36  93 CALM      30.09F
CHALLIS        PTCLDY    40  35  83 NW3       30.10R
$$

IDZ002-004-006-007-026-250600-
NORTHERN IDAHO


CITY           SKY/WX    TMP DP  RH WIND       PRES   REMARKS
LEWISTON       CLOUDY    51  48  89 SE3       29.95S
LOWELL           N/A     50  48  93 N3        30.02F
COEUR D`ALENE  CLOUDY    46  41  81 N10       29.99S
MULLAN PASS    LGT RAIN  36  36 100 SE12G18   30.03F VSB 1/2 WCI  28
$$



USA.gov is the U.S. government's official web portal to all federal, state and local government web resources and services.